Regional Weather Roundup
Issued by NWS

Home | Current Version | Previous Version | Graphics & Text | Print | Product List | Glossary On
Versions: 1 2 3 4 5 6 7 8 9 10 11 12 13 14 15 16 17 18 19 20 21 22 23 24 25 26 27 28 29 30 31 32 33 34 35 36 37 38 39 40 41
000
ASUS45 KBOU 220107
RWRCO

WEATHER ROUNDUP FOR COLORADO
NATIONAL WEATHER SERVICE DENVER/BOULDER CO
700 PM MDT TUE OCT 21 2014

NOTE: "FAIR" INDICATES FEW OR NO CLOUDS BELOW 12000 FEET WITH NO
SIGNIFICANT WEATHER AND/OR OBSTRUCTIONS TO VISIBILITY.

COZ001>005-013-030-031-220200-
...NORTHWEST COLORADO...

CITY           SKY/WX    TMP DP  RH WIND       PRES   REMARKS
CRAIG          MOCLDY    56  41  57 CALM      30.00R
HAYDEN         CLOUDY    54  39  58 E6        30.02R
MEEKER         PTCLDY    56  39  53 S8        30.00S
MOUNT WERNER   NOT AVBL
STEAMBOAT SPGS CLOUDY    55  38  51 CALM      30.04R
WALDEN         CLOUDY    46  36  66 SE5       30.09R
$$

COZ006>008-011-220200-
...WEST CENTRAL VALLEYS...

CITY           SKY/WX    TMP DP  RH WIND       PRES   REMARKS
GRAND JUNCTION MOCLDY    55  45  68 E13       29.96S
MONTROSE       MOCLDY    58  44  60 SE8       30.03S
EAGLE          MOCLDY    55  43  62 VRB5      30.06S
RIFLE          LGT RAIN  57  45  64 W12       30.00R
DELTA          MOCLDY    63  43  47 N6        30.00R
NUCLA          MOCLDY    61  37  41 S5        30.05S
$$

COZ017>023-064>068-220200-
...SOUTHWEST COLORADO...

CITY           SKY/WX    TMP DP  RH WIND       PRES   REMARKS
DURANGO        MOCLDY    53  49  86 CALM      30.10R
CORTEZ         PTCLDY    56  42  59 S7        30.05R
PAGOSA SPRINGS CLOUDY    52  41  66 NW8       30.16R
TELLURIDE      MOCLDY    50  38  64 SE7       30.20R
WOLF CREEK PAS CLOUDY    32  32 100 SW17        N/A  FOG     WCI  21
$$

COZ009-010-012-014-032>034-037-058>063-220200-
...CENTRAL COLORADO...

CITY           SKY/WX    TMP DP  RH WIND       PRES   REMARKS
ASPEN          CLOUDY    48  41  76 SE10      30.12S
BUENA VISTA    CLOUDY    50  38  62 NW3       30.10R
COPPER MTN     SNOW      36  32  87 W6G18     30.33R VSB<1/4
BERTHOUD PASS  LGT SNOW  32  28  86 MISG      30.33S VSB 3/4
COTTONWOOD PAS CLOUDY    48  34  57 N9        30.19S
GUNNISON       CLOUDY    50  36  57 N9        30.16R
KREMMLING      CLOUDY    52  36  54 E3          N/A
LEADVILLE      LGT RAIN  41  34  76 N9        30.21R
MONARCH PASS   SNOW      32  32 100 W15       30.41R VSB<1/4 WCI  22
SALIDA         CLOUDY    57  39  51 W9        30.15R
SUNLIGHT       CLOUDY    39  37  93 CALM      30.26R
WILKERSON PASS NOT AVBL
$$

COZ069>075-220200-
...SAN LUIS VALLEY/SANGRE DE CRISTO MOUNTAINS...

CITY           SKY/WX    TMP DP  RH WIND       PRES   REMARKS
ALAMOSA        PTCLDY    51  39  63 S10       30.10R
LA VETA PASS   PTCLDY    43  34  70 S13G18    30.23S
SAGUACHE       CLOUDY    54  36  50 S3        30.12R
$$

COZ035-036-038>040-220200-
...NORTHERN COLORADO FRONT RANGE...

CITY           SKY/WX    TMP DP  RH WIND       PRES   REMARKS
DENVER INTL AP MOCLDY    64  38  38 S9        29.91R
DMNS CITY PARK   N/A     66  36  33 E3        29.91R
AURORA         MOCLDY    62  40  44 S9        29.94R
FRONT RANGE AP NOT AVBL
ERIE MUNI ARPT CLOUDY    65  41  42 NW7       29.90R
BOULDER MUN AP MOCLDY    66  37  34 W5        29.91R
CENTENNIAL     MOCLDY    60  39  45 S8        29.94R
BROOMFIELD     MOCLDY    66  37  34 NW7       29.93R
FORT COLLINS   MOCLDY    63  41  45 N7        29.91S
LONGMONT       MOCLDY    66  38  35 N6        29.92R
$$

COZ041-046-047-076>085-087-088-220200-
...PIKES PEAK/PALMER DIVIDE AND SOUTHERN FOOTHILLS...

CITY           SKY/WX    TMP DP  RH WIND       PRES   REMARKS
COLO. SPRINGS  PTCLDY    60  36  40 CALM      29.99S
A. F. ACADEMY  PTCLDY    57  37  46 N8        30.00S
ELLICOTT       PTCLDY    56  38  50 S10       29.98R
FALCON         PTCLDY    54  35  47 S3        30.04R
FORT CARSON    PTCLDY    58  38  46 W8        29.95S
LIMON          PTCLDY    57  38  48 SE8       29.95R
MONUMENT HILL  PTCLDY    52  32  46 S10       30.02R
TRINIDAD       CLOUDY    63  43  48 S26G36    29.99R
$$

COZ042>045-048>051-090-091-220200-
...NORTHEAST COLORADO...

CITY           SKY/WX    TMP DP  RH WIND       PRES   REMARKS
GREELEY ARPT   CLOUDY    63  37  39 W6        29.90R
AKRON          PTCLDY    64  40  41 S10       29.90S
BURLINGTON     CLEAR     66  41  40 S13       29.93S
WRAY           CLEAR     70  41  35 S14G21    29.88S
STERLING       PTCLDY    64  43  45 S6        29.85R
HOLYOKE        CLEAR     63  41  45 SE9       29.88R
FORT MORGAN    PTCLDY    63  36  35 S7        29.88R
$$

COZ086-089-092>099-220200-
...SOUTHEAST COLORADO...

CITY           SKY/WX    TMP DP  RH WIND       PRES   REMARKS
PUEBLO         CLEAR     68  42  38 SE12      29.88R
LA JUNTA       CLEAR     67  44  43 S9        29.91S
LAMAR          CLEAR     68  46  45 S13       29.91R
SPRINGFIELD      N/A     63  47  55 S16       30.00R
$$



USA.gov is the U.S. government's official web portal to all federal, state and local government web resources and services.